Tracking 19562 objects as of 21-Mar-2019
HD Live streaming from Space Station
objects crossing your sky now

COSMOS 1805

Track COSMOS 1805 now!
10-day predictions
COSMOS 1805 is classified as:


NORAD ID: 17191
Int'l Code: 1986-097A
Perigee: 532.3 km
Apogee: 540.1 km
Inclination: 82.5 °
Period: 95.2 minutes
Semi major axis: 6907 km
RCS: 9.467 m2 (large)
Launch date: December 10, 1986
Source: Commonwealth of Independent States (former USSR) (CIS)
Launch site: PLESETSK MISSILE AND SPACE COMPLEX (PKMTR)
aabbcc
Your satellite tracking list
Your tracking list is empty




NASA's NSSDC Master Catalog

Two Line Element Set (TLE):
1 17191U 86097A   19079.87470655 -.00000083 +00000-0 -65892-5 0  9995
2 17191 082.4716 117.1852 0005685 040.6194 319.5459 15.12344726760321
Source of the keplerian elements: AFSPC